Flag for Switzerland Weather past 2 weeks in Illnau-Effretikon, Zurich, Switzerland

Now
58 °F

Cool.


Feels Like: 58 °F
Forecast: 48 / 66 °F
Wind: 1 mph from Southeast

Location: Zurich Town / Ville.

Current Time: Oct 1, 2014 at 11:17:25 PM

Latest Report: Oct 1, 2014 at 10:00 PM


Visibility: N/A

Pressure: 30.34 "Hg

Humidity: 93%

Dew point: 56 °F

Location of Illnau-EffretikonLocation

Historic Weather in Illnau-Effretikon — Graph

°F

Illnau-Effretikon temperature yesterday

Maximum temperature yesterday: 62 °F (at 1:00 PM)
Minimum temperature yesterday: 58 °F (at 5:00 AM)
Average temperature yesterday: 60 °F

Past Weeks' High & Low Weather Summary

 TemperatureHumidityPressure
High73 °F (Sep 20, 3:00 PM)100% (Sep 17, 8:00 AM)30.35 "Hg (Sep 17, 8:00 AM)
Low41 °F (Sep 23, 6:00 AM)47% (Sep 23, 4:00 PM)29.81 "Hg (Sep 17, 5:00 PM)
Average58 °F84%30.13 "Hg
* Reported Sep 16 10:00 PM — Oct 1 10:00 PM, Illnau-Effretikon, Weather by CustomWeather, © 2014

Note: Actual official high and low records may vary slightly from our data, if they occured in-between our weather recording intervals... More about our weather records

Advertising

Illnau-Effretikon weather history for previous 24 hours

 ConditionsComfort  
Time TempWeatherWind HumidityBarometerVisibility
10:00 PM
Oct 1
58 °FCool.1 mph93%30.34 "HgN/A
9:00 PM58 °FCool.No wind92%30.33 "HgN/A
8:00 PM61 °FCool.2 mph90%30.31 "HgN/A
7:00 PM62 °FCool.2 mph84%30.29 "HgN/A
6:00 PM63 °FMild.2 mph84%30.29 "HgN/A
5:00 PM65 °FMild.6 mph72%30.27 "HgN/A
4:00 PM66 °FMild.6 mph80%30.27 "HgN/A
3:00 PM64 °FMild.3 mph81%30.28 "HgN/A
2:00 PM62 °FCool.1 mph91%30.30 "HgN/A
1:00 PM62 °FCool.2 mph89%30.32 "HgN/A
12:00 PM60 °FCool.2 mph94%30.32 "HgN/A
11:00 AM59 °FCool.1 mph96%30.32 "HgN/A
10:00 AM58 °FCool.1 mph97%30.31 "HgN/A
9:00 AM58 °FCool.2 mph98%30.30 "HgN/A
8:00 AM58 °FFog.1 mph98%30.29 "HgN/A
7:00 AM58 °FCool.1 mph98%30.29 "HgN/A
6:00 AM58 °FCool.No wind98%30.29 "HgN/A
5:00 AM58 °FCool.No wind97%30.29 "HgN/A
4:00 AM58 °FCool.No wind95%30.30 "HgN/A
3:00 AM58 °FCool.1 mph97%30.30 "HgN/A
2:00 AM58 °FCool.No wind96%30.30 "HgN/A
1:00 AM58 °FCool.2 mph96%30.30 "HgN/A
12:00 AM59 °FCool.No wind97%30.31 "HgN/A
11:00 PM
Sep 30
59 °FCool.1 mph95%30.32 "HgN/A
Weather by CustomWeather, © 2014

See weather overviewHow to use our weather pages